Time,TemperatureF,DewpointF,PressureIn,WindDirection,WindDirectionDegrees,WindSpeedMPH,WindSpeedGustMPH,Humidity,HourlyPrecipIn,Conditions,Clouds,dailyrainin,SoftwareType,DateUTC
2013-03-02 00:02:00,42.0,-99.9,-100.00,North,0,0.0,0.0,-999,0.00,,,-99.99,,2013-03-02 07:02:00,
2013-03-02 00:11:00,41.0,-99.9,-100.00,North,0,0.0,0.0,-999,0.00,,,-99.99,,2013-03-02 07:11:00,
2013-03-02 00:22:00,41.0,-99.9,-100.00,North,0,0.0,0.0,-999,0.00,,,-99.99,,2013-03-02 07:22:00,
2013-03-02 00:32:00,40.0,-99.9,-100.00,North,0,0.0,0.0,-999,0.00,,,-99.99,,2013-03-02 07:32:00,
2013-03-02 00:42:00,40.0,-99.9,-100.00,North,0,0.0,0.0,-999,0.00,,,-99.99,,2013-03-02 07:42:00,
2013-03-02 00:52:00,41.0,-99.9,-100.00,North,0,0.0,0.0,-999,0.00,,,-99.99,,2013-03-02 07:52:00,
2013-03-02 01:01:00,42.0,-99.9,-100.00,North,0,0.0,0.0,-999,0.00,,,-99.99,,2013-03-02 08:01:00,
2013-03-02 01:11:00,42.0,-99.9,-100.00,North,0,0.0,0.0,-999,0.00,,,-99.99,,2013-03-02 08:11:00,
2013-03-02 01:22:00,40.0,-99.9,-100.00,North,0,0.0,0.0,-999,0.00,,,-99.99,,2013-03-02 08:22:00,
2013-03-02 01:32:00,41.0,-99.9,-100.00,North,0,0.0,0.0,-999,0.00,,,-99.99,,2013-03-02 08:32:00,
2013-03-02 01:43:00,41.0,-99.9,-100.00,North,0,0.0,0.0,-999,0.00,,,-99.99,,2013-03-02 08:43:00,
2013-03-02 01:52:00,42.0,-99.9,-100.00,North,0,0.0,0.0,-999,0.00,,,-99.99,,2013-03-02 08:52:00,
2013-03-02 02:02:00,41.0,-99.9,-100.00,North,0,0.0,0.0,-999,0.00,,,-99.99,,2013-03-02 09:02:00,
2013-03-02 02:11:00,41.0,-99.9,-100.00,North,0,0.0,0.0,-999,0.00,,,-99.99,,2013-03-02 09:11:00,
2013-03-02 02:22:00,41.0,-99.9,-100.00,North,0,0.0,0.0,-999,0.00,,,-99.99,,2013-03-02 09:22:00,
2013-03-02 02:32:00,42.0,-99.9,-100.00,West,278,1.0,4.0,-999,0.00,,,-99.99,,2013-03-02 09:32:00,
2013-03-02 02:42:00,42.0,-99.9,-100.00,West,278,1.0,4.0,-999,0.00,,,-99.99,,2013-03-02 09:42:00,
2013-03-02 02:52:00,41.0,-99.9,-100.00,North,0,0.0,0.0,-999,0.00,,,-99.99,,2013-03-02 09:52:00,
2013-03-02 03:02:00,42.0,-99.9,-100.00,North,0,0.0,0.0,-999,0.00,,,-99.99,,2013-03-02 10:02:00,
2013-03-02 03:16:00,42.0,-99.9,-100.00,North,0,0.0,0.0,-999,0.00,,,-99.99,,2013-03-02 10:16:00,
2013-03-02 03:22:00,42.0,-99.9,-100.00,North,0,0.0,0.0,-999,0.00,,,-99.99,,2013-03-02 10:22:00,
2013-03-02 03:32:00,42.0,-99.9,-100.00,WSW,255,2.0,5.0,-999,0.00,,,-99.99,,2013-03-02 10:32:00,
2013-03-02 03:43:00,42.0,-99.9,-100.00,WSW,255,2.0,5.0,-999,0.00,,,-99.99,,2013-03-02 10:43:00,
2013-03-02 03:52:00,40.0,-99.9,-100.00,North,0,0.0,0.0,-999,0.00,,,-99.99,,2013-03-02 10:52:00,
2013-03-02 04:01:00,40.0,-99.9,-100.00,North,0,0.0,0.0,-999,0.00,,,-99.99,,2013-03-02 11:01:00,
2013-03-02 04:11:00,40.0,-99.9,-100.00,North,0,0.0,0.0,-999,0.00,,,-99.99,,2013-03-02 11:11:00,
2013-03-02 04:22:00,40.0,-99.9,-100.00,North,0,0.0,0.0,-999,0.00,,,-99.99,,2013-03-02 11:22:00,
2013-03-02 04:32:00,41.0,-99.9,-100.00,North,0,0.0,0.0,-999,0.00,,,-99.99,,2013-03-02 11:32:00,
2013-03-02 04:42:00,41.0,-99.9,-100.00,North,0,0.0,0.0,-999,0.00,,,-99.99,,2013-03-02 11:42:00,
2013-03-02 04:52:00,41.0,-99.9,-100.00,North,0,0.0,0.0,-999,0.00,,,-99.99,,2013-03-02 11:52:00,
2013-03-02 05:02:00,41.0,-99.9,-100.00,North,0,0.0,0.0,-999,0.00,,,-99.99,,2013-03-02 12:02:00,
2013-03-02 05:11:00,41.0,-99.9,-100.00,North,0,0.0,0.0,-999,0.00,,,-99.99,,2013-03-02 12:11:00,
2013-03-02 05:22:00,42.0,-99.9,-100.00,North,0,0.0,0.0,-999,0.00,,,-99.99,,2013-03-02 12:22:00,
2013-03-02 05:33:00,42.0,-99.9,-100.00,North,0,0.0,0.0,-999,0.00,,,-99.99,,2013-03-02 12:33:00,
2013-03-02 05:43:00,42.0,-99.9,-100.00,North,0,0.0,0.0,-999,0.00,,,-99.99,,2013-03-02 12:43:00,
2013-03-02 05:53:00,42.0,-99.9,-100.00,North,0,0.0,0.0,-999,0.00,,,-99.99,,2013-03-02 12:53:00,
2013-03-02 06:02:00,42.0,-99.9,-100.00,North,0,0.0,0.0,-999,0.00,,,-99.99,,2013-03-02 13:02:00,
2013-03-02 06:12:00,42.0,-99.9,-100.00,North,0,0.0,0.0,-999,0.00,,,-99.99,,2013-03-02 13:12:00,
2013-03-02 06:22:00,40.0,-99.9,-100.00,North,0,0.0,0.0,-999,0.00,,,-99.99,,2013-03-02 13:22:00,
2013-03-02 06:32:00,40.0,-99.9,-100.00,North,0,0.0,0.0,-999,0.00,,,-99.99,,2013-03-02 13:32:00,
2013-03-02 06:42:00,40.0,-99.9,-100.00,North,0,0.0,0.0,-999,0.00,,,-99.99,,2013-03-02 13:42:00,
2013-03-02 06:53:00,41.0,-99.9,-100.00,North,0,0.0,0.0,-999,0.00,,,-99.99,,2013-03-02 13:53:00,
2013-03-02 07:01:00,40.0,-99.9,-100.00,North,0,0.0,0.0,-999,0.00,,,-99.99,,2013-03-02 14:01:00,
2013-03-02 07:11:00,40.0,-99.9,-100.00,North,0,0.0,0.0,-999,0.00,,,-99.99,,2013-03-02 14:11:00,
2013-03-02 07:22:00,41.0,-99.9,-100.00,North,0,0.0,0.0,-999,0.00,,,-99.99,,2013-03-02 14:22:00,
2013-03-02 07:32:00,41.0,-99.9,-100.00,North,0,0.0,0.0,-999,0.00,,,-99.99,,2013-03-02 14:32:00,
2013-03-02 07:42:00,41.0,-99.9,-100.00,North,0,0.0,0.0,-999,0.00,,,-99.99,,2013-03-02 14:42:00,
2013-03-02 07:52:00,39.0,-99.9,-100.00,North,0,0.0,0.0,-999,0.00,,,-99.99,,2013-03-02 14:52:00,
2013-03-02 08:02:00,37.0,-99.9,-100.00,North,0,0.0,0.0,-999,0.00,,,-99.99,,2013-03-02 15:02:00,
2013-03-02 08:12:00,37.0,-99.9,-100.00,North,0,0.0,0.0,-999,0.00,,,-99.99,,2013-03-02 15:12:00,
2013-03-02 08:22:00,40.0,-99.9,-100.00,North,0,0.0,0.0,-999,0.00,,,-99.99,,2013-03-02 15:22:00,
2013-03-02 08:32:00,40.0,-99.9,-100.00,North,0,0.0,0.0,-999,0.00,,,-99.99,,2013-03-02 15:32:00,
2013-03-02 08:42:00,40.0,-99.9,-100.00,North,0,0.0,0.0,-999,0.00,,,-99.99,,2013-03-02 15:42:00,
2013-03-02 08:52:00,40.0,-99.9,-100.00,North,0,0.0,0.0,-999,0.00,,,-99.99,,2013-03-02 15:52:00,
2013-03-02 09:02:00,40.0,-99.9,-100.00,North,0,0.0,0.0,-999,0.00,,,-99.99,,2013-03-02 16:02:00,
2013-03-02 09:12:00,40.0,-99.9,-100.00,North,0,0.0,0.0,-999,0.00,,,-99.99,,2013-03-02 16:12:00,
2013-03-02 09:22:00,41.0,-99.9,-100.00,North,0,0.0,0.0,-999,0.00,,,-99.99,,2013-03-02 16:22:00,
2013-03-02 09:32:00,42.0,-99.9,-100.00,North,0,0.0,0.0,-999,0.00,,,-99.99,,2013-03-02 16:32:00,
2013-03-02 09:42:00,42.0,-99.9,-100.00,North,0,0.0,0.0,-999,0.00,,,-99.99,,2013-03-02 16:42:00,
2013-03-02 09:52:00,42.0,-99.9,-100.00,North,0,0.0,0.0,-999,0.00,,,-99.99,,2013-03-02 16:52:00,
2013-03-02 10:01:00,43.0,-99.9,-100.00,North,0,0.0,0.0,-999,0.00,,,-99.99,,2013-03-02 17:01:00,
2013-03-02 10:12:00,44.0,-99.9,-100.00,North,0,0.0,0.0,-999,0.00,,,-99.99,,2013-03-02 17:12:00,
2013-03-02 10:22:00,44.0,-99.9,-100.00,North,0,0.0,0.0,-999,0.00,,,-99.99,,2013-03-02 17:22:00,
2013-03-02 10:32:00,45.0,-99.9,-100.00,North,0,0.0,0.0,-999,0.00,,,-99.99,,2013-03-02 17:32:00,
2013-03-02 10:42:00,45.0,-99.9,-100.00,North,0,0.0,0.0,-999,0.00,,,-99.99,,2013-03-02 17:42:00,
2013-03-02 10:52:00,47.0,-99.9,-100.00,North,0,0.0,0.0,-999,0.00,,,-99.99,,2013-03-02 17:52:00,
2013-03-02 11:02:00,47.0,-99.9,-100.00,North,0,0.0,0.0,-999,0.00,,,-99.99,,2013-03-02 18:02:00,
2013-03-02 11:12:00,47.0,-99.9,-100.00,North,0,0.0,0.0,-999,0.00,,,-99.99,,2013-03-02 18:12:00,
2013-03-02 11:22:00,50.0,-99.9,-100.00,North,0,0.0,0.0,-999,0.00,,,-99.99,,2013-03-02 18:22:00,
2013-03-02 11:32:00,51.0,-99.9,-100.00,North,0,0.0,0.0,-999,0.00,,,-99.99,,2013-03-02 18:32:00,
2013-03-02 11:42:00,51.0,-99.9,-100.00,North,0,0.0,0.0,-999,0.00,,,-99.99,,2013-03-02 18:42:00,
2013-03-02 11:52:00,54.0,-99.9,-100.00,North,0,0.0,0.0,-999,0.00,,,-99.99,,2013-03-02 18:52:00,
2013-03-02 12:02:00,55.0,-99.9,-100.00,North,0,0.0,0.0,-999,0.00,,,-99.99,,2013-03-02 19:02:00,
2013-03-02 12:12:00,55.0,-99.9,-100.00,North,0,0.0,0.0,-999,0.00,,,-99.99,,2013-03-02 19:12:00,
2013-03-02 12:22:00,56.0,-99.9,-100.00,North,0,0.0,0.0,-999,0.00,,,-99.99,,2013-03-02 19:22:00,
2013-03-02 12:32:00,56.0,-99.9,-100.00,North,0,0.0,0.0,-999,0.00,,,-99.99,,2013-03-02 19:32:00,
2013-03-02 12:43:00,56.0,-99.9,-100.00,North,0,0.0,0.0,-999,0.00,,,-99.99,,2013-03-02 19:43:00,
2013-03-02 12:52:00,60.0,-99.9,-100.00,SW,225,1.0,4.0,-999,0.00,,,-99.99,,2013-03-02 19:52:00,
2013-03-02 13:02:00,59.0,-99.9,-100.00,North,0,0.0,0.0,-999,0.00,,,-99.99,,2013-03-02 20:02:00,
2013-03-02 13:12:00,59.0,-99.9,-100.00,North,0,0.0,0.0,-999,0.00,,,-99.99,,2013-03-02 20:12:00,
2013-03-02 13:22:00,56.0,-99.9,-100.00,North,0,0.0,0.0,-999,0.00,,,-99.99,,2013-03-02 20:22:00,
2013-03-02 13:32:00,59.0,-99.9,-100.00,North,0,0.0,0.0,-999,0.00,,,-99.99,,2013-03-02 20:32:00,
2013-03-02 13:42:00,59.0,-99.9,-100.00,North,0,0.0,0.0,-999,0.00,,,-99.99,,2013-03-02 20:42:00,
2013-03-02 13:53:00,59.0,-99.9,-100.00,North,354,6.0,10.0,-999,0.00,,,-99.99,,2013-03-02 20:53:00,
2013-03-02 14:02:00,57.0,-99.9,-100.00,North,359,4.0,8.0,-999,0.00,,,-99.99,,2013-03-02 21:02:00,
2013-03-02 14:12:00,57.0,-99.9,-100.00,North,359,4.0,8.0,-999,0.00,,,-99.99,,2013-03-02 21:12:00,
2013-03-02 14:22:00,58.0,-99.9,-100.00,North,0,0.0,0.0,-999,0.00,,,-99.99,,2013-03-02 21:22:00,
2013-03-02 14:32:00,58.0,-99.9,-100.00,NNW,340,7.0,9.0,-999,0.00,,,-99.99,,2013-03-02 21:32:00,
2013-03-02 14:42:00,58.0,-99.9,-100.00,NNW,340,7.0,9.0,-999,0.00,,,-99.99,,2013-03-02 21:42:00,
2013-03-02 14:53:00,56.0,-99.9,-100.00,North,349,8.0,9.0,-999,0.00,,,-99.99,,2013-03-02 21:53:00,
2013-03-02 15:02:00,56.0,-99.9,-100.00,North,353,6.0,8.0,-999,0.00,,,-99.99,,2013-03-02 22:02:00,
2013-03-02 15:12:00,56.0,-99.9,-100.00,North,353,6.0,8.0,-999,0.00,,,-99.99,,2013-03-02 22:12:00,
2013-03-02 15:22:00,55.0,-99.9,-100.00,NNW,345,5.0,7.0,-999,0.00,,,-99.99,,2013-03-02 22:22:00,
2013-03-02 15:32:00,55.0,-99.9,-100.00,North,3,3.0,6.0,-999,0.00,,,-99.99,,2013-03-02 22:32:00,
2013-03-02 15:42:00,55.0,-99.9,-100.00,North,3,3.0,6.0,-999,0.00,,,-99.99,,2013-03-02 22:42:00,
2013-03-02 15:52:00,54.0,-99.9,-100.00,North,0,1.0,5.0,-999,0.00,,,-99.99,,2013-03-02 22:52:00,
2013-03-02 16:02:00,54.0,-99.9,-100.00,North,0,0.0,0.0,-999,0.00,,,-99.99,,2013-03-02 23:02:00,
2013-03-02 16:12:00,53.0,-99.9,-100.00,North,0,0.0,0.0,-999,0.00,,,-99.99,,2013-03-02 23:12:00,
2013-03-02 16:22:00,53.0,-99.9,-100.00,North,0,0.0,0.0,-999,0.00,,,-99.99,,2013-03-02 23:22:00,
2013-03-02 16:32:00,52.0,-99.9,-100.00,North,0,0.0,0.0,-999,0.00,,,-99.99,,2013-03-02 23:32:00,
2013-03-02 16:42:00,52.0,-99.9,-100.00,North,0,0.0,0.0,-999,0.00,,,-99.99,,2013-03-02 23:42:00,
2013-03-02 16:52:00,50.0,-99.9,-100.00,North,0,0.0,0.0,-999,0.00,,,-99.99,,2013-03-02 23:52:00,
2013-03-02 17:02:00,49.0,-99.9,-100.00,North,0,0.0,0.0,-999,0.00,,,-99.99,,2013-03-03 00:02:00,
2013-03-02 17:11:00,49.0,-99.9,-100.00,North,0,0.0,0.0,-999,0.00,,,-99.99,,2013-03-03 00:11:00,
2013-03-02 17:23:00,48.0,-99.9,-100.00,North,0,0.0,0.0,-999,0.00,,,-99.99,,2013-03-03 00:23:00,
2013-03-02 17:32:00,48.0,-99.9,-100.00,North,0,0.0,0.0,-999,0.00,,,-99.99,,2013-03-03 00:32:00,
2013-03-02 17:42:00,48.0,-99.9,-100.00,North,0,0.0,0.0,-999,0.00,,,-99.99,,2013-03-03 00:42:00,
2013-03-02 17:53:00,47.0,-99.9,-100.00,North,0,0.0,0.0,-999,0.00,,,-99.99,,2013-03-03 00:53:00,
2013-03-02 18:01:00,47.0,-99.9,-100.00,North,0,0.0,0.0,-999,0.00,,,-99.99,,2013-03-03 01:01:00,
2013-03-02 18:12:00,47.0,-99.9,-100.00,North,0,0.0,0.0,-999,0.00,,,-99.99,,2013-03-03 01:12:00,
2013-03-02 18:22:00,46.0,-99.9,-100.00,North,0,0.0,0.0,-999,0.00,,,-99.99,,2013-03-03 01:22:00,
2013-03-02 18:32:00,45.0,-99.9,-100.00,North,0,0.0,0.0,-999,0.00,,,-99.99,,2013-03-03 01:32:00,
2013-03-02 18:42:00,45.0,-99.9,-100.00,North,0,0.0,0.0,-999,0.00,,,-99.99,,2013-03-03 01:42:00,
2013-03-02 18:52:00,45.0,-99.9,-100.00,North,0,0.0,0.0,-999,0.00,,,-99.99,,2013-03-03 01:52:00,
2013-03-02 19:01:00,45.0,-99.9,-100.00,North,0,0.0,0.0,-999,0.00,,,-99.99,,2013-03-03 02:01:00,
2013-03-02 19:11:00,44.0,-99.9,-100.00,North,0,0.0,0.0,-999,0.00,,,-99.99,,2013-03-03 02:11:00,
2013-03-02 19:22:00,44.0,-99.9,-100.00,North,0,0.0,0.0,-999,0.00,,,-99.99,,2013-03-03 02:22:00,
2013-03-02 19:32:00,44.0,-99.9,-100.00,North,0,0.0,0.0,-999,0.00,,,-99.99,,2013-03-03 02:32:00,
2013-03-02 19:42:00,44.0,-99.9,-100.00,North,0,0.0,0.0,-999,0.00,,,-99.99,,2013-03-03 02:42:00,
2013-03-02 19:52:00,44.0,-99.9,-100.00,North,0,0.0,0.0,-999,0.00,,,-99.99,,2013-03-03 02:52:00,
2013-03-02 20:02:00,44.0,-99.9,-100.00,North,0,0.0,0.0,-999,0.00,,,-99.99,,2013-03-03 03:02:00,
2013-03-02 20:11:00,44.0,-99.9,-100.00,North,0,0.0,0.0,-999,0.00,,,-99.99,,2013-03-03 03:11:00,
2013-03-02 20:22:00,44.0,-99.9,-100.00,North,0,0.0,0.0,-999,0.00,,,-99.99,,2013-03-03 03:22:00,
2013-03-02 20:32:00,42.0,-99.9,-100.00,North,0,0.0,0.0,-999,0.00,,,-99.99,,2013-03-03 03:32:00,
2013-03-02 20:42:00,42.0,-99.9,-100.00,North,0,0.0,0.0,-999,0.00,,,-99.99,,2013-03-03 03:42:00,
2013-03-02 20:52:00,44.0,-99.9,-100.00,North,0,0.0,0.0,-999,0.00,,,-99.99,,2013-03-03 03:52:00,
2013-03-02 21:01:00,44.0,-99.9,-100.00,North,0,0.0,0.0,-999,0.00,,,-99.99,,2013-03-03 04:01:00,
2013-03-02 21:11:00,44.0,-99.9,-100.00,North,0,0.0,0.0,-999,0.00,,,-99.99,,2013-03-03 04:11:00,
2013-03-02 21:22:00,44.0,-99.9,-100.00,North,0,0.0,0.0,-999,0.00,,,-99.99,,2013-03-03 04:22:00,
2013-03-02 21:32:00,44.0,-99.9,-100.00,North,0,0.0,0.0,-999,0.00,,,-99.99,,2013-03-03 04:32:00,
2013-03-02 21:42:00,44.0,-99.9,-100.00,North,0,0.0,0.0,-999,0.00,,,-99.99,,2013-03-03 04:42:00,
2013-03-02 21:52:00,44.0,-99.9,-100.00,North,0,0.0,0.0,-999,0.00,,,-99.99,,2013-03-03 04:52:00,
2013-03-02 22:02:00,44.0,-99.9,-100.00,North,0,0.0,0.0,-999,0.00,,,-99.99,,2013-03-03 05:02:00,
2013-03-02 22:12:00,44.0,-99.9,-100.00,North,0,0.0,0.0,-999,0.00,,,-99.99,,2013-03-03 05:12:00,
2013-03-02 22:22:00,44.0,-99.9,-100.00,North,0,0.0,0.0,-999,0.00,,,-99.99,,2013-03-03 05:22:00,
2013-03-02 22:32:00,44.0,-99.9,-100.00,North,0,0.0,0.0,-999,0.00,,,-99.99,,2013-03-03 05:32:00,
2013-03-02 22:42:00,44.0,-99.9,-100.00,North,0,0.0,0.0,-999,0.00,,,-99.99,,2013-03-03 05:42:00,
2013-03-02 22:52:00,43.0,-99.9,-100.00,North,0,0.0,0.0,-999,0.00,,,-99.99,,2013-03-03 05:52:00,
2013-03-02 23:02:00,43.0,-99.9,-100.00,North,0,0.0,0.0,-999,0.00,,,-99.99,,2013-03-03 06:02:00,
2013-03-02 23:11:00,43.0,-99.9,-100.00,North,0,0.0,0.0,-999,0.00,,,-99.99,,2013-03-03 06:11:00,
2013-03-02 23:22:00,42.0,-99.9,-100.00,North,0,0.0,0.0,-999,0.00,,,-99.99,,2013-03-03 06:22:00,
2013-03-02 23:32:00,42.0,-99.9,-100.00,North,0,0.0,0.0,-999,0.00,,,-99.99,,2013-03-03 06:32:00,
2013-03-02 23:42:00,42.0,-99.9,-100.00,North,0,0.0,0.0,-999,0.00,,,-99.99,,2013-03-03 06:42:00,
2013-03-02 23:52:00,42.0,-99.9,-100.00,North,0,0.0,0.0,-999,0.00,,,-99.99,,2013-03-03 06:52:00,